When you browse on this site, cookies collect data to enhance your experience and personalize the content and advertising you see.
Visit our Privacy Policy to learn more. By continuing to use the site, you agree to this use of cookies and data.
  • In Spain
  • List of Countries
  • For 7 days
  • Water Temperature
  • Weather Map
  • Weather Widgets
  • user-avatar
    Login

    Hourly Weather Gorzów Wielkopolski

    Today, 6 June, Saturday

    Time Temperature Precipitation Wind Pressure Humidity
    00:00 +11°C° 0.1 mm 6 mps 743 mmHg 78%
    01:00 +10°C° 0 mm 5 mps 743 mmHg 86%
    02:00 +9°C° 0 mm 5 mps 744 mmHg 86%
    03:00 +8°C° 0 mm 4 mps 744 mmHg 86%
    04:00 +7°C° 0 mm 4 mps 745 mmHg 86%
    05:00 +8°C° 0 mm 5 mps 746 mmHg 79%
    06:00 +9°C° 0 mm 5 mps 746 mmHg 72%
    07:00 +12°C° 0 mm 5 mps 747 mmHg 65%
    08:00 +13°C° 0 mm 6 mps 747 mmHg 59%
    09:00 +14°C° 0 mm 6 mps 748 mmHg 53%
    10:00 +16°C° 0 mm 6 mps 748 mmHg 48%
    11:00 +16°C° 0 mm 6 mps 748 mmHg 47%
    12:00 +17°C° 0 mm 6 mps 748 mmHg 46%
    13:00 +19°C° 0 mm 5 mps 748 mmHg 45%
    14:00 +17°C° 0.1 mm 5 mps 748 mmHg 50%
    15:00 +17°C° 0.1 mm 5 mps 749 mmHg 56%
    16:00 +16°C° 0.1 mm 5 mps 749 mmHg 61%
    17:00 +17°C° 0 mm 4 mps 749 mmHg 64%
    18:00 +17°C° 0 mm 3 mps 749 mmHg 67%
    19:00 +16°C° 0 mm 3 mps 749 mmHg 70%
    20:00 +14°C° 0 mm 3 mps 750 mmHg 75%
    21:00 +13°C° 0 mm 3 mps 750 mmHg 79%
    22:00 +11°C° 0 mm 3 mps 751 mmHg 83%
    23:00 +11°C° 0 mm 3 mps 751 mmHg 87%

    Tomorrow, 7 June, Sunday

    Time Temperature Precipitation Wind Pressure Humidity
    00:00 +11°C° 0 mm 3 mps 751 mmHg 91%
    01:00 +11°C° 0 mm 3 mps 751 mmHg 94%
    02:00 +11°C° 0 mm 3 mps 751 mmHg 95%
    03:00 +11°C° 0 mm 3 mps 751 mmHg 95%
    04:00 +11°C° 0 mm 3 mps 751 mmHg 95%
    05:00 +12°C° 0 mm 3 mps 751 mmHg 88%
    06:00 +14°C° 0 mm 3 mps 751 mmHg 81%
    07:00 +16°C° 0 mm 3 mps 751 mmHg 75%
    08:00 +18°C° 0 mm 3 mps 752 mmHg 68%
    09:00 +19°C° 0 mm 3 mps 752 mmHg 62%
    10:00 +21°C° 0 mm 3 mps 752 mmHg 56%
    11:00 +20°C° 0.1 mm 4 mps 752 mmHg 58%
    12:00 +20°C° 0.1 mm 4 mps 752 mmHg 60%
    13:00 +19°C° 0.1 mm 4 mps 752 mmHg 62%
    14:00 +19°C° 0 mm 4 mps 752 mmHg 60%
    15:00 +20°C° 0 mm 3 mps 752 mmHg 58%
    16:00 +20°C° 0 mm 3 mps 752 mmHg 56%
    17:00 +19°C° 0 mm 2 mps 752 mmHg 59%
    18:00 +20°C° 0 mm 1 mps 753 mmHg 63%
    19:00 +19°C° 0 mm 1 mps 753 mmHg 67%
    20:00 +18°C° 0 mm 1 mps 753 mmHg 69%
    21:00 +15°C° 0 mm 1 mps 753 mmHg 71%
    22:00 +14°C° 0 mm 1 mps 754 mmHg 73%
    23:00 +14°C° 0 mm 1 mps 754 mmHg 74%

    Day after tomorrow, 8 June, Monday

    Time Temperature Precipitation Wind Pressure Humidity
    00:00 +13°C° 0 mm 1 mps 754 mmHg 75%
    01:00 +13°C° 0 mm 2 mps 754 mmHg 76%
    02:00 +13°C° 0 mm 2 mps 754 mmHg 76%
    03:00 +13°C° 0 mm 1 mps 754 mmHg 75%
    04:00 +13°C° 0 mm 1 mps 754 mmHg 75%
    05:00 +14°C° 0 mm 1 mps 755 mmHg 75%
    06:00 +14°C° 0 mm 1 mps 755 mmHg 75%
    07:00 +14°C° 0 mm 2 mps 755 mmHg 75%
    08:00 +15°C° 0.1 mm 1 mps 755 mmHg 73%
    09:00 +16°C° 0.1 mm 1 mps 756 mmHg 70%
    10:00 +18°C° 0.1 mm 1 mps 756 mmHg 68%
    11:00 +18°C° 0.1 mm 1 mps 756 mmHg 65%
    12:00 +19°C° 0.1 mm 1 mps 756 mmHg 63%
    13:00 +19°C° 0.1 mm 1 mps 756 mmHg 60%
    14:00 +19°C° 0 mm 2 mps 756 mmHg 57%
    15:00 +20°C° 0 mm 2 mps 756 mmHg 53%
    16:00 +20°C° 0 mm 2 mps 756 mmHg 50%
    17:00 +19°C° 0 mm 2 mps 756 mmHg 55%
    18:00 +19°C° 0 mm 2 mps 756 mmHg 61%
    19:00 +19°C° 0 mm 1 mps 756 mmHg 67%
    20:00 +16°C° 0 mm 1 mps 757 mmHg 74%
    21:00 +14°C° 0 mm 1 mps 757 mmHg 82%
    22:00 +13°C° 0 mm 1 mps 757 mmHg 89%
    23:00 +12°C° 0 mm 1 mps 757 mmHg 91%

    9 June, Tuesday

    Time Temperature Precipitation Wind Pressure Humidity
    00:00 +12°C° 0 mm 1 mps 757 mmHg 92%
    01:00 +11°C° 0 mm 1 mps 758 mmHg 94%
    02:00 +10°C° 0 mm 0 mps 758 mmHg 93%
    03:00 +10°C° 0 mm 0 mps 758 mmHg 93%
    04:00 +10°C° 0 mm 0 mps 758 mmHg 93%
    05:00 +13°C° 0 mm 1 mps 758 mmHg 86%
    06:00 +15°C° 0 mm 1 mps 758 mmHg 79%
    07:00 +16°C° 0 mm 1 mps 759 mmHg 71%
    08:00 +18°C° 0 mm 2 mps 759 mmHg 63%
    09:00 +19°C° 0 mm 2 mps 759 mmHg 55%
    10:00 +21°C° 0 mm 2 mps 759 mmHg 47%
    11:00 +21°C° 0 mm 2 mps 759 mmHg 44%
    12:00 +22°C° 0 mm 3 mps 759 mmHg 41%
    13:00 +24°C° 0 mm 3 mps 759 mmHg 38%
    14:00 +24°C° 0 mm 3 mps 758 mmHg 40%
    15:00 +24°C° 0 mm 3 mps 758 mmHg 41%
    16:00 +24°C° 0 mm 3 mps 758 mmHg 42%
    17:00 +22°C° 0 mm 3 mps 758 mmHg 49%
    18:00 +21°C° 0 mm 3 mps 758 mmHg 56%
    19:00 +20°C° 0 mm 3 mps 758 mmHg 63%
    20:00 +18°C° 0 mm 3 mps 759 mmHg 68%
    21:00 +16°C° 0 mm 3 mps 759 mmHg 73%
    22:00 +13°C° 0 mm 3 mps 759 mmHg 78%
    23:00 +12°C° 0 mm 3 mps 759 mmHg 80%

    10 June, Wednesday

    Time Temperature Precipitation Wind Pressure Humidity
    00:00 +12°C° 0 mm 2 mps 759 mmHg 83%
    01:00 +12°C° 0 mm 2 mps 759 mmHg 86%
    02:00 +10°C° 0 mm 2 mps 759 mmHg 87%
    03:00 +10°C° 0 mm 2 mps 759 mmHg 87%
    04:00 +10°C° 0 mm 2 mps 759 mmHg 88%
    05:00 +11°C° 0 mm 3 mps 760 mmHg 82%
    06:00 +13°C° 0 mm 3 mps 760 mmHg 76%
    07:00 +14°C° 0 mm 3 mps 760 mmHg 70%
    08:00 +17°C° 0 mm 3 mps 760 mmHg 65%
    09:00 +18°C° 0 mm 3 mps 760 mmHg 61%
    10:00 +19°C° 0 mm 3 mps 761 mmHg 56%
    11:00 +20°C° 0 mm 3 mps 760 mmHg 54%
    12:00 +21°C° 0 mm 4 mps 760 mmHg 52%
    13:00 +22°C° 0 mm 4 mps 760 mmHg 50%
    14:00 +21°C° 0 mm 4 mps 760 mmHg 53%
    15:00 +21°C° 0 mm 4 mps 760 mmHg 56%
    16:00 +21°C° 0 mm 5 mps 760 mmHg 59%
    17:00 +20°C° 0 mm 5 mps 760 mmHg 63%
    18:00 +18°C° 0 mm 4 mps 760 mmHg 67%
    19:00 +17°C° 0 mm 4 mps 760 mmHg 71%
    20:00 +15°C° 0 mm 4 mps 760 mmHg 73%
    21:00 +13°C° 0 mm 4 mps 761 mmHg 75%
    22:00 +12°C° 0 mm 4 mps 761 mmHg 77%
    23:00 +11°C° 0 mm 4 mps 761 mmHg 80%

    11 June, Thursday

    Time Temperature Precipitation Wind Pressure Humidity
    00:00 +10°C° 0 mm 3 mps 760 mmHg 83%
    01:00 +10°C° 0 mm 3 mps 760 mmHg 86%
    02:00 +10°C° 0 mm 3 mps 760 mmHg 87%
    03:00 +10°C° 0 mm 3 mps 760 mmHg 88%
    04:00 +10°C° 0 mm 3 mps 760 mmHg 89%
    05:00 +12°C° 0 mm 3 mps 760 mmHg 85%
    06:00 +13°C° 0 mm 3 mps 760 mmHg 82%
    07:00 +14°C° 0 mm 4 mps 760 mmHg 78%
    08:00 +15°C° 0 mm 4 mps 760 mmHg 74%
    09:00 +17°C° 0 mm 4 mps 760 mmHg 70%
    10:00 +18°C° 0 mm 4 mps 760 mmHg 66%
    11:00 +19°C° 0 mm 4 mps 760 mmHg 64%
    12:00 +20°C° 0 mm 4 mps 759 mmHg 62%
    13:00 +20°C° 0 mm 5 mps 759 mmHg 60%
    14:00 +21°C° 0 mm 5 mps 759 mmHg 58%
    15:00 +22°C° 0 mm 5 mps 758 mmHg 57%
    16:00 +23°C° 0 mm 6 mps 758 mmHg 55%
    17:00 +22°C° 0 mm 5 mps 758 mmHg 59%
    18:00 +20°C° 0 mm 5 mps 758 mmHg 63%
    19:00 +19°C° 0 mm 4 mps 758 mmHg 67%
    20:00 +18°C° 0 mm 4 mps 758 mmHg 70%
    21:00 +17°C° 0 mm 4 mps 758 mmHg 74%
    22:00 +14°C° 0 mm 4 mps 758 mmHg 78%
    23:00 +14°C° 0 mm 4 mps 757 mmHg 82%
    Show more